• In Hungary
  • List of Countries
  • For 7 days
  • Water Temperature
  • Satellite Maps
  • Weather Map
  • News
  • Weather Widgets
  • user-avatar
    Login

    Hourly Weather Kashhatau

    Today, 16 October, Tuesday

    Time Temperature Precipitation Wind Pressure Humidity
    00:00 +11°C° 0 mm 1 mps 679 mmHg 61%
    01:00 +11°C° 0 mm 1 mps 679 mmHg 61%
    02:00 +11°C° 0 mm 1 mps 678 mmHg 62%
    03:00 +11°C° 0 mm 1 mps 678 mmHg 63%
    04:00 +11°C° 0 mm 1 mps 678 mmHg 63%
    05:00 +11°C° 0 mm 1 mps 678 mmHg 62%
    06:00 +11°C° 0 mm 1 mps 678 mmHg 62%
    07:00 +12°C° 0 mm 1 mps 679 mmHg 56%
    08:00 +14°C° 0 mm 1 mps 679 mmHg 51%
    09:00 +16°C° 0 mm 1 mps 680 mmHg 45%
    10:00 +17°C° 0 mm 2 mps 680 mmHg 43%
    11:00 +18°C° 0 mm 2 mps 680 mmHg 42%
    12:00 +19°C° 0 mm 2 mps 680 mmHg 41%
    13:00 +19°C° 0 mm 2 mps 680 mmHg 42%
    14:00 +19°C° 0 mm 3 mps 679 mmHg 44%
    15:00 +19°C° 0 mm 3 mps 679 mmHg 46%
    16:00 +17°C° 0 mm 2 mps 679 mmHg 54%
    17:00 +15°C° 0 mm 2 mps 678 mmHg 62%
    18:00 +13°C° 0 mm 1 mps 678 mmHg 71%
    19:00 +12°C° 0 mm 1 mps 678 mmHg 71%
    20:00 +12°C° 0 mm 1 mps 678 mmHg 71%
    21:00 +12°C° 0 mm 1 mps 678 mmHg 71%
    22:00 +11°C° 0 mm 1 mps 678 mmHg 69%
    23:00 +11°C° 0 mm 1 mps 678 mmHg 67%

    Tomorrow, 17 October, Wednesday

    Time Temperature Precipitation Wind Pressure Humidity
    00:00 +11°C° 0 mm 1 mps 678 mmHg 65%
    01:00 +11°C° 0 mm 1 mps 677 mmHg 63%
    02:00 +10°C° 0 mm 1 mps 677 mmHg 62%
    03:00 +10°C° 0 mm 1 mps 677 mmHg 60%
    04:00 +10°C° 0 mm 1 mps 677 mmHg 60%
    05:00 +10°C° 0 mm 1 mps 677 mmHg 60%
    06:00 +10°C° 0 mm 1 mps 677 mmHg 60%
    07:00 +11°C° 0 mm 1 mps 677 mmHg 56%
    08:00 +13°C° 0 mm 1 mps 678 mmHg 52%
    09:00 +15°C° 0 mm 1 mps 678 mmHg 49%
    10:00 +16°C° 0 mm 1 mps 678 mmHg 47%
    11:00 +17°C° 0 mm 2 mps 678 mmHg 46%
    12:00 +19°C° 0 mm 2 mps 678 mmHg 45%
    13:00 +19°C° 0 mm 2 mps 678 mmHg 47%
    14:00 +19°C° 0 mm 2 mps 678 mmHg 49%
    15:00 +19°C° 0 mm 2 mps 677 mmHg 52%
    16:00 +17°C° 0 mm 2 mps 677 mmHg 61%
    17:00 +15°C° 0 mm 2 mps 677 mmHg 69%
    18:00 +13°C° 0 mm 1 mps 676 mmHg 78%
    19:00 +12°C° 0 mm 1 mps 676 mmHg 78%
    20:00 +12°C° 0 mm 1 mps 676 mmHg 79%
    21:00 +12°C° 0 mm 1 mps 676 mmHg 79%
    22:00 +11°C° 0 mm 1 mps 676 mmHg 79%
    23:00 +11°C° 0 mm 1 mps 676 mmHg 78%

    Day after tomorrow, 18 October, Thursday

    Time Temperature Precipitation Wind Pressure Humidity
    00:00 +11°C° 0 mm 1 mps 676 mmHg 78%
    01:00 +11°C° 0 mm 1 mps 676 mmHg 76%
    02:00 +11°C° 0 mm 1 mps 676 mmHg 74%
    03:00 +11°C° 0 mm 1 mps 676 mmHg 72%
    04:00 +11°C° 0 mm 1 mps 676 mmHg 69%
    05:00 +11°C° 0 mm 1 mps 676 mmHg 65%
    06:00 +11°C° 0 mm 1 mps 675 mmHg 61%
    07:00 +12°C° 0 mm 1 mps 676 mmHg 59%
    08:00 +14°C° 0 mm 1 mps 676 mmHg 56%
    09:00 +15°C° 0 mm 1 mps 677 mmHg 53%
    10:00 +16°C° 0 mm 1 mps 677 mmHg 53%
    11:00 +17°C° 0 mm 2 mps 677 mmHg 53%
    12:00 +18°C° 0 mm 2 mps 677 mmHg 53%
    13:00 +18°C° 0 mm 2 mps 676 mmHg 55%
    14:00 +18°C° 0 mm 2 mps 676 mmHg 56%
    15:00 +18°C° 0 mm 2 mps 676 mmHg 58%
    16:00 +16°C° 0 mm 2 mps 676 mmHg 65%
    17:00 +14°C° 0 mm 1 mps 676 mmHg 72%
    18:00 +12°C° 0 mm 1 mps 675 mmHg 80%
    19:00 +12°C° 0 mm 1 mps 675 mmHg 77%
    20:00 +11°C° 0 mm 1 mps 675 mmHg 74%
    21:00 +11°C° 0 mm 1 mps 675 mmHg 71%
    22:00 +11°C° 0 mm 1 mps 675 mmHg 67%
    23:00 +11°C° 0 mm 1 mps 675 mmHg 63%

    19 October, Friday

    Time Temperature Precipitation Wind Pressure Humidity
    00:00 +11°C° 0 mm 1 mps 675 mmHg 60%
    01:00 +11°C° 0 mm 1 mps 675 mmHg 57%
    02:00 +11°C° 0 mm 1 mps 675 mmHg 54%
    03:00 +10°C° 0 mm 2 mps 675 mmHg 52%
    04:00 +10°C° 0 mm 2 mps 675 mmHg 51%
    05:00 +10°C° 0 mm 2 mps 675 mmHg 51%
    06:00 +10°C° 0 mm 2 mps 675 mmHg 50%
    07:00 +13°C° 0 mm 1 mps 676 mmHg 49%
    08:00 +14°C° 0 mm 1 mps 676 mmHg 48%
    09:00 +16°C° 0 mm 1 mps 677 mmHg 47%
    10:00 +18°C° 0 mm 1 mps 677 mmHg 47%
    11:00 +18°C° 0 mm 2 mps 676 mmHg 47%
    12:00 +19°C° 0 mm 2 mps 676 mmHg 47%
    13:00 +19°C° 0 mm 2 mps 676 mmHg 48%
    14:00 +19°C° 0 mm 2 mps 676 mmHg 50%
    15:00 +19°C° 0 mm 2 mps 676 mmHg 52%
    16:00 +17°C° 0 mm 2 mps 675 mmHg 59%
    17:00 +15°C° 0 mm 1 mps 675 mmHg 67%
    18:00 +13°C° 0 mm 1 mps 675 mmHg 74%
    19:00 +13°C° 0 mm 1 mps 675 mmHg 72%
    20:00 +13°C° 0 mm 1 mps 675 mmHg 70%
    21:00 +12°C° 0 mm 2 mps 675 mmHg 68%
    22:00 +12°C° 0 mm 2 mps 675 mmHg 65%
    23:00 +12°C° 0 mm 2 mps 675 mmHg 63%

    20 October, Saturday

    Time Temperature Precipitation Wind Pressure Humidity
    00:00 +12°C° 0 mm 2 mps 675 mmHg 61%
    01:00 +12°C° 0 mm 2 mps 674 mmHg 58%
    02:00 +12°C° 0 mm 2 mps 674 mmHg 55%
    03:00 +12°C° 0 mm 2 mps 674 mmHg 53%
    04:00 +12°C° 0 mm 2 mps 674 mmHg 51%
    05:00 +12°C° 0 mm 2 mps 674 mmHg 50%
    06:00 +12°C° 0 mm 2 mps 674 mmHg 49%
    07:00 +14°C° 0 mm 1 mps 675 mmHg 46%
    08:00 +15°C° 0 mm 1 mps 675 mmHg 43%
    09:00 +16°C° 0 mm 0 mps 675 mmHg 40%
    10:00 +19°C° 0 mm 1 mps 675 mmHg 39%
    11:00 +20°C° 0 mm 1 mps 675 mmHg 38%
    12:00 +20°C° 0 mm 2 mps 676 mmHg 37%
    13:00 +20°C° 0 mm 2 mps 675 mmHg 40%
    14:00 +19°C° 0 mm 2 mps 675 mmHg 43%
    15:00 +20°C° 0 mm 1 mps 675 mmHg 46%
    16:00 +18°C° 0 mm 1 mps 674 mmHg 54%
    17:00 +16°C° 0 mm 1 mps 674 mmHg 63%
    18:00 +14°C° 0 mm 1 mps 674 mmHg 71%
    19:00 +14°C° 0 mm 1 mps 674 mmHg 70%
    20:00 +13°C° 0 mm 1 mps 674 mmHg 69%
    21:00 +13°C° 0 mm 1 mps 674 mmHg 67%
    22:00 +13°C° 0 mm 1 mps 673 mmHg 67%
    23:00 +13°C° 0 mm 1 mps 673 mmHg 66%

    21 October, Sunday

    Time Temperature Precipitation Wind Pressure Humidity
    00:00 +13°C° 0 mm 1 mps 673 mmHg 65%
    01:00 +13°C° 0 mm 1 mps 673 mmHg 65%
    02:00 +12°C° 0 mm 1 mps 673 mmHg 65%
    03:00 +12°C° 0 mm 1 mps 673 mmHg 64%
    04:00 +12°C° 0 mm 1 mps 673 mmHg 64%
    05:00 +12°C° 0 mm 1 mps 673 mmHg 64%
    06:00 +12°C° 0 mm 1 mps 673 mmHg 64%
    07:00 +13°C° 0 mm 1 mps 673 mmHg 59%
    08:00 +15°C° 0 mm 1 mps 674 mmHg 55%
    09:00 +16°C° 0 mm 1 mps 674 mmHg 50%
    10:00 +18°C° 0 mm 1 mps 674 mmHg 49%
    11:00 +18°C° 0 mm 2 mps 674 mmHg 48%
    12:00 +19°C° 0 mm 2 mps 674 mmHg 47%
    13:00 +19°C° 0.1 mm 2 mps 674 mmHg 49%
    14:00 +18°C° 0.1 mm 2 mps 674 mmHg 51%
    15:00 +18°C° 0.1 mm 2 mps 674 mmHg 54%
    16:00 +17°C° 0.1 mm 2 mps 674 mmHg 61%
    17:00 +15°C° 0.1 mm 1 mps 674 mmHg 68%
    18:00 +13°C° 0.1 mm 0 mps 673 mmHg 75%
    19:00 +13°C° 0 mm 1 mps 673 mmHg 76%
    20:00 +13°C° 0 mm 1 mps 673 mmHg 77%
    21:00 +13°C° 0 mm 1 mps 673 mmHg 78%
    22:00 +12°C° 0 mm 1 mps 673 mmHg 78%
    23:00 +12°C° 0 mm 1 mps 673 mmHg 77%
    Show more